Year,Month,Day,Hour,Minute,Value (Times are PST for temperature in C)
2015,08,17,00,00,16.60
2015,08,17,00,01,16.50
2015,08,17,00,02,16.50
2015,08,17,00,03,16.40
2015,08,17,00,04,16.30
2015,08,17,00,05,16.20
2015,08,17,00,06,16.20
2015,08,17,00,07,16.10
2015,08,17,00,08,16.00
2015,08,17,00,09,16.00
2015,08,17,00,10,15.90
2015,08,17,00,11,15.90
2015,08,17,00,12,15.90
2015,08,17,00,13,15.90
2015,08,17,00,14,15.90
2015,08,17,00,15,15.90
2015,08,17,00,16,15.90
2015,08,17,00,17,15.90
2015,08,17,00,18,15.90
2015,08,17,00,19,15.90
2015,08,17,00,20,15.90
2015,08,17,00,21,16.00
2015,08,17,00,22,16.00
2015,08,17,00,23,16.00
2015,08,17,00,24,16.00
2015,08,17,00,25,16.00
2015,08,17,00,26,16.00
2015,08,17,00,27,16.00
2015,08,17,00,28,16.00
2015,08,17,00,29,16.00
2015,08,17,00,30,16.00
2015,08,17,00,31,15.90
2015,08,17,00,32,15.90
2015,08,17,00,33,15.90
2015,08,17,00,34,15.80
2015,08,17,00,35,15.80
2015,08,17,00,36,15.80
2015,08,17,00,37,15.80
2015,08,17,00,38,15.80
2015,08,17,00,39,15.80
2015,08,17,00,40,15.80
2015,08,17,00,41,15.80
2015,08,17,00,42,15.80
2015,08,17,00,43,15.80
2015,08,17,00,44,15.70
2015,08,17,00,45,15.70
2015,08,17,00,46,15.70
2015,08,17,00,47,15.70
2015,08,17,00,48,15.70
2015,08,17,00,49,15.70
2015,08,17,00,50,15.70
2015,08,17,00,51,15.70
2015,08,17,00,52,15.70
2015,08,17,00,53,15.70
2015,08,17,00,54,15.60
2015,08,17,00,55,15.60
2015,08,17,00,56,15.60
2015,08,17,00,57,15.50
2015,08,17,00,58,15.50
2015,08,17,00,59,15.50
2015,08,17,01,00,15.50
2015,08,17,01,01,15.40
2015,08,17,01,02,15.40
2015,08,17,01,03,15.40
2015,08,17,01,04,15.40
2015,08,17,01,05,15.30
2015,08,17,01,06,15.30
2015,08,17,01,07,15.40
2015,08,17,01,08,15.40
2015,08,17,01,09,15.40
2015,08,17,01,10,15.50
2015,08,17,01,11,15.50
2015,08,17,01,12,15.60
2015,08,17,01,13,15.60
2015,08,17,01,14,15.70
2015,08,17,01,15,15.70
2015,08,17,01,16,15.80
2015,08,17,01,17,15.80
2015,08,17,01,18,15.90
2015,08,17,01,19,15.90
2015,08,17,01,20,15.90
2015,08,17,01,21,15.90
2015,08,17,01,22,15.90
2015,08,17,01,23,15.90
2015,08,17,01,24,15.90
2015,08,17,01,25,15.90
2015,08,17,01,26,15.90
2015,08,17,01,27,15.80
2015,08,17,01,28,15.80
2015,08,17,01,29,15.80
2015,08,17,01,30,15.80
2015,08,17,01,31,15.90
2015,08,17,01,32,15.80
2015,08,17,01,33,15.80
2015,08,17,01,34,15.80
2015,08,17,01,35,15.80
2015,08,17,01,36,15.80
2015,08,17,01,37,15.80
2015,08,17,01,38,15.80
2015,08,17,01,39,15.80
2015,08,17,01,40,15.80
2015,08,17,01,41,15.70
2015,08,17,01,42,15.70
2015,08,17,01,43,15.70
2015,08,17,01,44,15.70
2015,08,17,01,45,15.70
2015,08,17,01,46,15.70
2015,08,17,01,47,15.70
2015,08,17,01,48,15.70
2015,08,17,01,49,15.60
2015,08,17,01,50,15.60
2015,08,17,01,51,15.60
2015,08,17,01,52,15.60
2015,08,17,01,53,15.60
2015,08,17,01,54,15.50
2015,08,17,01,55,15.50
2015,08,17,01,56,15.50
2015,08,17,01,57,15.40
2015,08,17,01,58,15.40
2015,08,17,01,59,15.40
2015,08,17,02,00,15.40
2015,08,17,02,01,15.40
2015,08,17,02,02,15.30
2015,08,17,02,03,15.30
2015,08,17,02,04,15.30
2015,08,17,02,05,15.30
2015,08,17,02,06,15.30
2015,08,17,02,07,15.30
2015,08,17,02,08,15.40
2015,08,17,02,09,15.40
2015,08,17,02,10,15.40
2015,08,17,02,11,15.40
2015,08,17,02,12,15.30
2015,08,17,02,13,15.30
2015,08,17,02,14,15.30
2015,08,17,02,15,15.30
2015,08,17,02,16,15.30
2015,08,17,02,17,15.20
2015,08,17,02,18,15.20
2015,08,17,02,19,15.20
2015,08,17,02,20,15.20
2015,08,17,02,21,15.20
2015,08,17,02,22,15.20
2015,08,17,02,23,15.20
2015,08,17,02,24,15.10
2015,08,17,02,25,15.10
2015,08,17,02,26,15.10
2015,08,17,02,27,15.00
2015,08,17,02,28,14.90
2015,08,17,02,29,14.90
2015,08,17,02,30,14.80
2015,08,17,02,31,14.70
2015,08,17,02,32,14.70
2015,08,17,02,33,14.60
2015,08,17,02,34,14.60
2015,08,17,02,35,14.50
2015,08,17,02,36,14.40
2015,08,17,02,37,14.40
2015,08,17,02,38,14.30
2015,08,17,02,39,14.30
2015,08,17,02,40,14.20
2015,08,17,02,41,14.20
2015,08,17,02,42,14.10
2015,08,17,02,43,14.00
2015,08,17,02,44,14.00
2015,08,17,02,45,14.00
2015,08,17,02,46,14.00
2015,08,17,02,47,13.90
2015,08,17,02,48,13.90
2015,08,17,02,49,13.90
2015,08,17,02,50,13.90
2015,08,17,02,51,13.90
2015,08,17,02,52,13.90
2015,08,17,02,53,13.90
2015,08,17,02,54,14.00
2015,08,17,02,55,14.00
2015,08,17,02,56,14.00
2015,08,17,02,57,14.00
2015,08,17,02,58,14.00
2015,08,17,02,59,14.00
2015,08,17,03,00,13.90
2015,08,17,03,01,13.90
2015,08,17,03,02,13.80
2015,08,17,03,03,13.80
2015,08,17,03,04,13.80
2015,08,17,03,05,13.70
2015,08,17,03,06,13.70
2015,08,17,03,07,13.60
2015,08,17,03,08,13.60
2015,08,17,03,09,13.60
2015,08,17,03,10,13.60
2015,08,17,03,11,13.60
2015,08,17,03,12,13.60
2015,08,17,03,13,13.50
2015,08,17,03,14,13.60
2015,08,17,03,15,13.60
2015,08,17,03,16,13.70
2015,08,17,03,17,13.70
2015,08,17,03,18,13.70
2015,08,17,03,19,13.70
2015,08,17,03,20,13.80
2015,08,17,03,21,13.80
2015,08,17,03,22,13.90
2015,08,17,03,23,13.90
2015,08,17,03,24,13.90
2015,08,17,03,25,14.00
2015,08,17,03,26,14.00
2015,08,17,03,27,14.10
2015,08,17,03,28,14.10
2015,08,17,03,29,14.10
2015,08,17,03,30,14.10
2015,08,17,03,31,14.10
2015,08,17,03,32,14.10
2015,08,17,03,33,14.20
2015,08,17,03,34,14.20
2015,08,17,03,35,14.30
2015,08,17,03,36,14.30
2015,08,17,03,37,14.30
2015,08,17,03,38,14.30
2015,08,17,03,39,14.30
2015,08,17,03,40,14.30
2015,08,17,03,41,14.30
2015,08,17,03,42,14.30
2015,08,17,03,43,14.30
2015,08,17,03,44,14.30
2015,08,17,03,45,14.30
2015,08,17,03,46,14.30
2015,08,17,03,47,14.30
2015,08,17,03,48,14.20
2015,08,17,03,49,14.20
2015,08,17,03,50,14.20
2015,08,17,03,51,14.20
2015,08,17,03,52,14.20
2015,08,17,03,53,14.20
2015,08,17,03,54,14.20
2015,08,17,03,55,14.20
2015,08,17,03,56,14.10
2015,08,17,03,57,14.10
2015,08,17,03,58,14.10
2015,08,17,03,59,14.10
2015,08,17,04,00,14.10
2015,08,17,04,01,14.10
2015,08,17,04,02,14.10
2015,08,17,04,03,14.10
2015,08,17,04,04,14.00
2015,08,17,04,05,14.00
2015,08,17,04,06,14.00
2015,08,17,04,07,14.00
2015,08,17,04,08,14.00
2015,08,17,04,09,13.90
2015,08,17,04,10,13.90
2015,08,17,04,11,13.80
2015,08,17,04,12,13.80
2015,08,17,04,13,13.80
2015,08,17,04,14,13.70
2015,08,17,04,15,13.70
2015,08,17,04,16,13.70
2015,08,17,04,17,13.70
2015,08,17,04,18,13.70
2015,08,17,04,19,13.70
2015,08,17,04,20,13.70
2015,08,17,04,21,13.70
2015,08,17,04,22,13.70
2015,08,17,04,23,13.70
2015,08,17,04,24,13.70
2015,08,17,04,25,13.70
2015,08,17,04,26,13.80
2015,08,17,04,27,13.70
2015,08,17,04,28,13.70
2015,08,17,04,29,13.70
2015,08,17,04,30,13.70
2015,08,17,04,31,13.70
2015,08,17,04,32,13.60
2015,08,17,04,33,13.60
2015,08,17,04,34,13.60
2015,08,17,04,35,13.60
2015,08,17,04,36,13.50
2015,08,17,04,37,13.50
2015,08,17,04,38,13.50
2015,08,17,04,39,13.50
2015,08,17,04,40,13.50
2015,08,17,04,41,13.50
2015,08,17,04,42,13.40
2015,08,17,04,43,13.40
2015,08,17,04,44,13.40
2015,08,17,04,45,13.40
2015,08,17,04,46,13.40
2015,08,17,04,47,13.40
2015,08,17,04,48,13.40
2015,08,17,04,49,13.40
2015,08,17,04,50,13.40
2015,08,17,04,51,13.40
2015,08,17,04,52,13.40
2015,08,17,04,53,13.40
2015,08,17,04,54,13.40
2015,08,17,04,55,13.40
2015,08,17,04,56,13.30
2015,08,17,04,57,13.40
2015,08,17,04,58,13.40
2015,08,17,04,59,13.40
2015,08,17,05,00,13.40
2015,08,17,05,01,13.40
2015,08,17,05,02,13.40
2015,08,17,05,03,13.40
2015,08,17,05,04,13.40
2015,08,17,05,05,13.40
2015,08,17,05,06,13.40
2015,08,17,05,07,13.40
2015,08,17,05,08,13.40
2015,08,17,05,09,13.40
2015,08,17,05,10,13.40
2015,08,17,05,11,13.40
2015,08,17,05,12,13.40
2015,08,17,05,13,13.40
2015,08,17,05,14,13.40
2015,08,17,05,15,13.40
2015,08,17,05,16,13.40
2015,08,17,05,17,13.40
2015,08,17,05,18,13.40
2015,08,17,05,19,13.40
2015,08,17,05,20,13.40
2015,08,17,05,21,13.40
2015,08,17,05,22,13.40
2015,08,17,05,23,13.40
2015,08,17,05,24,13.40
2015,08,17,05,25,13.40
2015,08,17,05,26,13.40
2015,08,17,05,27,13.40
2015,08,17,05,28,13.40
2015,08,17,05,29,13.40
2015,08,17,05,30,13.40
2015,08,17,05,31,13.40
2015,08,17,05,32,13.40
2015,08,17,05,33,13.40
2015,08,17,05,34,13.40
2015,08,17,05,35,13.40
2015,08,17,05,36,13.40
2015,08,17,05,37,13.40
2015,08,17,05,38,13.40
2015,08,17,05,39,13.40
2015,08,17,05,40,13.40
2015,08,17,05,41,13.40
2015,08,17,05,42,13.40
2015,08,17,05,43,13.40
2015,08,17,05,44,13.40
2015,08,17,05,45,13.40
2015,08,17,05,46,13.30
2015,08,17,05,47,13.30
2015,08,17,05,48,13.30
2015,08,17,05,49,13.30
2015,08,17,05,50,13.30
2015,08,17,05,51,13.30
2015,08,17,05,52,13.30
2015,08,17,05,53,13.30
2015,08,17,05,54,13.30
2015,08,17,05,55,13.30
2015,08,17,05,56,13.30
2015,08,17,05,57,13.30
2015,08,17,05,58,13.30
2015,08,17,05,59,13.20
2015,08,17,06,00,13.20
2015,08,17,06,01,13.20
2015,08,17,06,02,13.10
2015,08,17,06,03,13.00
2015,08,17,06,04,13.00
2015,08,17,06,05,12.90
2015,08,17,06,06,12.90
2015,08,17,06,07,12.90
2015,08,17,06,08,12.90
2015,08,17,06,09,12.90
2015,08,17,06,10,12.90
2015,08,17,06,11,12.90
2015,08,17,06,12,13.00
2015,08,17,06,13,13.00
2015,08,17,06,14,13.00
2015,08,17,06,15,13.10
2015,08,17,06,16,13.10
2015,08,17,06,17,13.20
2015,08,17,06,18,13.20
2015,08,17,06,19,13.30
2015,08,17,06,20,13.30
2015,08,17,06,21,13.30
2015,08,17,06,22,13.40
2015,08,17,06,23,13.40
2015,08,17,06,24,13.40
2015,08,17,06,25,13.40
2015,08,17,06,26,13.40
2015,08,17,06,27,13.40
2015,08,17,06,28,13.40
2015,08,17,06,29,13.40
2015,08,17,06,30,13.40
2015,08,17,06,31,13.40
2015,08,17,06,32,13.40
2015,08,17,06,33,13.40
2015,08,17,06,34,13.50
2015,08,17,06,35,13.50
2015,08,17,06,36,13.50
2015,08,17,06,37,13.50
2015,08,17,06,38,13.60
2015,08,17,06,39,13.60
2015,08,17,06,40,13.60
2015,08,17,06,41,13.70
2015,08,17,06,42,13.70
2015,08,17,06,43,13.70
2015,08,17,06,44,13.70
2015,08,17,06,45,13.80
2015,08,17,06,46,13.80
2015,08,17,06,47,13.80
2015,08,17,06,48,13.80
2015,08,17,06,49,13.80
2015,08,17,06,50,13.80
2015,08,17,06,51,13.80
2015,08,17,06,52,13.80
2015,08,17,06,53,13.80
2015,08,17,06,54,13.80
2015,08,17,06,55,13.80
2015,08,17,06,56,13.80
2015,08,17,06,57,13.90
2015,08,17,06,58,13.90
2015,08,17,06,59,13.90
2015,08,17,07,00,13.90
2015,08,17,07,01,14.00
2015,08,17,07,02,14.00
2015,08,17,07,03,14.10
2015,08,17,07,04,14.10
2015,08,17,07,05,14.10
2015,08,17,07,06,14.10
2015,08,17,07,07,14.10
2015,08,17,07,08,14.10
2015,08,17,07,09,14.20
2015,08,17,07,10,14.20
2015,08,17,07,11,14.20
2015,08,17,07,12,14.30
2015,08,17,07,13,14.30
2015,08,17,07,14,14.30
2015,08,17,07,15,14.30
2015,08,17,07,16,14.30
2015,08,17,07,17,14.40
2015,08,17,07,18,14.40
2015,08,17,07,19,14.40
2015,08,17,07,20,14.40
2015,08,17,07,21,14.40
2015,08,17,07,22,14.40
2015,08,17,07,23,14.40
2015,08,17,07,24,14.50
2015,08,17,07,25,14.50
2015,08,17,07,26,14.50
2015,08,17,07,27,14.60
2015,08,17,07,28,14.60
2015,08,17,07,29,14.60
2015,08,17,07,30,14.70
2015,08,17,07,31,14.70
2015,08,17,07,32,14.80
2015,08,17,07,33,14.80
2015,08,17,07,34,14.80
2015,08,17,07,35,14.90
2015,08,17,07,36,14.90
2015,08,17,07,37,15.00
2015,08,17,07,38,15.00
2015,08,17,07,39,15.10
2015,08,17,07,40,15.10
2015,08,17,07,41,15.20
2015,08,17,07,42,15.20
2015,08,17,07,43,15.30
2015,08,17,07,44,15.30
2015,08,17,07,45,15.30
2015,08,17,07,46,15.40
2015,08,17,07,47,15.40
2015,08,17,07,48,15.50
2015,08,17,07,49,15.50
2015,08,17,07,50,15.60
2015,08,17,07,51,15.60
2015,08,17,07,52,15.70
2015,08,17,07,53,15.70
2015,08,17,07,54,15.70
2015,08,17,07,55,15.80
2015,08,17,07,56,15.80
2015,08,17,07,57,15.80
2015,08,17,07,58,15.90
2015,08,17,07,59,15.90
2015,08,17,08,00,15.90
2015,08,17,08,01,16.00
2015,08,17,08,02,16.10
2015,08,17,08,03,16.10
2015,08,17,08,04,16.10
2015,08,17,08,05,16.20
2015,08,17,08,06,16.20
2015,08,17,08,07,16.30
2015,08,17,08,08,16.30
2015,08,17,08,09,16.30
2015,08,17,08,10,16.40
2015,08,17,08,11,16.40
2015,08,17,08,12,16.40
2015,08,17,08,13,16.40
2015,08,17,08,14,16.50
2015,08,17,08,15,16.50
2015,08,17,08,16,16.50
2015,08,17,08,17,16.60
2015,08,17,08,18,16.60
2015,08,17,08,19,16.70
2015,08,17,08,20,16.70
2015,08,17,08,21,16.80
2015,08,17,08,22,16.80
2015,08,17,08,23,16.80
2015,08,17,08,24,16.90
2015,08,17,08,25,16.90
2015,08,17,08,26,16.90
2015,08,17,08,27,16.90
2015,08,17,08,28,16.90
2015,08,17,08,29,16.90
2015,08,17,08,30,16.90
2015,08,17,08,31,16.90
2015,08,17,08,32,17.00
2015,08,17,08,33,17.00
2015,08,17,08,34,17.00
2015,08,17,08,35,17.00
2015,08,17,08,36,17.10
2015,08,17,08,37,17.10
2015,08,17,08,38,17.10
2015,08,17,08,39,17.10
2015,08,17,08,40,17.20
2015,08,17,08,41,17.20
2015,08,17,08,42,17.20
2015,08,17,08,43,17.20
2015,08,17,08,44,17.30
2015,08,17,08,45,17.30
2015,08,17,08,46,17.30
2015,08,17,08,47,17.40
2015,08,17,08,48,17.40
2015,08,17,08,49,17.40
2015,08,17,08,50,17.40
2015,08,17,08,51,17.40
2015,08,17,08,52,17.40
2015,08,17,08,53,17.50
2015,08,17,08,54,17.50
2015,08,17,08,55,17.60
2015,08,17,08,56,17.60
2015,08,17,08,57,17.60
2015,08,17,08,58,17.60
2015,08,17,08,59,17.60
2015,08,17,09,00,17.70
2015,08,17,09,01,17.70
2015,08,17,09,02,17.80
2015,08,17,09,03,17.80
2015,08,17,09,04,17.90
2015,08,17,09,05,17.90
2015,08,17,09,06,17.90
2015,08,17,09,07,18.00
2015,08,17,09,08,18.00
2015,08,17,09,09,18.00
2015,08,17,09,10,18.00
2015,08,17,09,11,18.00
2015,08,17,09,12,18.10
2015,08,17,09,13,18.10
2015,08,17,09,14,18.00
2015,08,17,09,15,17.90
2015,08,17,09,16,17.80
2015,08,17,09,17,17.70
2015,08,17,09,18,17.50
2015,08,17,09,19,17.40
2015,08,17,09,20,17.40
2015,08,17,09,21,17.40
2015,08,17,09,22,17.40
2015,08,17,09,23,17.40
2015,08,17,09,24,17.40
2015,08,17,09,25,17.30
2015,08,17,09,26,17.30
2015,08,17,09,27,17.30
2015,08,17,09,28,17.30
2015,08,17,09,29,17.30
2015,08,17,09,30,17.30
2015,08,17,09,31,17.30
2015,08,17,09,32,17.30
2015,08,17,09,33,17.20
2015,08,17,09,34,17.20
2015,08,17,09,35,17.20
2015,08,17,09,36,17.20
2015,08,17,09,37,17.30
2015,08,17,09,38,17.30
2015,08,17,09,39,17.30
2015,08,17,09,40,17.20
2015,08,17,09,41,17.20
2015,08,17,09,42,17.30
2015,08,17,09,43,17.30
2015,08,17,09,44,17.30
2015,08,17,09,45,17.30
2015,08,17,09,46,17.30
2015,08,17,09,47,17.30
2015,08,17,09,48,17.30
2015,08,17,09,49,17.20
2015,08,17,09,50,17.20
2015,08,17,09,51,17.20
2015,08,17,09,52,17.20
2015,08,17,09,53,17.20
2015,08,17,09,54,17.20
2015,08,17,09,55,17.20
2015,08,17,09,56,17.20
2015,08,17,09,57,17.20
2015,08,17,09,58,17.30
2015,08,17,09,59,17.30
2015,08,17,10,00,17.40
2015,08,17,10,01,17.40
2015,08,17,10,02,17.40
2015,08,17,10,03,17.40
2015,08,17,10,04,17.40
2015,08,17,10,05,17.40
2015,08,17,10,06,17.40
2015,08,17,10,07,17.40
2015,08,17,10,08,17.40
2015,08,17,10,09,17.40
2015,08,17,10,10,17.40
2015,08,17,10,11,17.40
2015,08,17,10,12,17.40
2015,08,17,10,13,17.50
2015,08,17,10,14,17.50
2015,08,17,10,15,17.50
2015,08,17,10,16,17.50
2015,08,17,10,17,17.50
2015,08,17,10,18,17.50
2015,08,17,10,19,17.50
2015,08,17,10,20,17.50
2015,08,17,10,21,17.50
2015,08,17,10,22,17.50
2015,08,17,10,23,17.60
2015,08,17,10,24,17.60
2015,08,17,10,25,17.60
2015,08,17,10,26,17.70
2015,08,17,10,27,17.70
2015,08,17,10,28,17.80
2015,08,17,10,29,17.80
2015,08,17,10,30,17.90
2015,08,17,10,31,17.90
2015,08,17,10,32,17.90
2015,08,17,10,33,18.00
2015,08,17,10,34,18.00
2015,08,17,10,35,18.00
2015,08,17,10,36,18.10
2015,08,17,10,37,18.10
2015,08,17,10,38,18.20
2015,08,17,10,39,18.30
2015,08,17,10,40,18.30
2015,08,17,10,41,18.30
2015,08,17,10,42,18.20
2015,08,17,10,43,18.20
2015,08,17,10,44,18.30
2015,08,17,10,45,18.30
2015,08,17,10,46,18.30
2015,08,17,10,47,18.30
2015,08,17,10,48,18.30
2015,08,17,10,49,18.30
2015,08,17,10,50,18.30
2015,08,17,10,51,18.30
2015,08,17,10,52,18.20
2015,08,17,10,53,18.20
2015,08,17,10,54,18.20
2015,08,17,10,55,18.20
2015,08,17,10,56,18.20
2015,08,17,10,57,18.20
2015,08,17,10,58,18.30
2015,08,17,10,59,18.30
2015,08,17,11,00,18.40
2015,08,17,11,01,18.40
2015,08,17,11,02,18.40
2015,08,17,11,03,18.40
2015,08,17,11,04,18.40
2015,08,17,11,05,18.50
2015,08,17,11,06,18.50
2015,08,17,11,07,18.60
2015,08,17,11,08,18.60
2015,08,17,11,09,18.60
2015,08,17,11,10,18.70
2015,08,17,11,11,18.70
2015,08,17,11,12,18.80
2015,08,17,11,13,18.90
2015,08,17,11,14,18.90
2015,08,17,11,15,19.00
2015,08,17,11,16,19.00
2015,08,17,11,17,18.90
2015,08,17,11,18,18.90
2015,08,17,11,19,18.90
2015,08,17,11,20,19.00
2015,08,17,11,21,19.10
2015,08,17,11,22,19.10
2015,08,17,11,23,19.10
2015,08,17,11,24,19.10
2015,08,17,11,25,19.10
2015,08,17,11,26,19.10
2015,08,17,11,27,19.20
2015,08,17,11,28,19.20
2015,08,17,11,29,19.20
2015,08,17,11,30,19.20
2015,08,17,11,31,19.20
2015,08,17,11,32,19.10
2015,08,17,11,33,19.10
2015,08,17,11,34,19.10
2015,08,17,11,35,19.10
2015,08,17,11,36,19.20
2015,08,17,11,37,19.20
2015,08,17,11,38,19.20
2015,08,17,11,39,19.20
2015,08,17,11,40,19.30
2015,08,17,11,41,19.40
2015,08,17,11,42,19.40
2015,08,17,11,43,19.50
2015,08,17,11,44,19.50
2015,08,17,11,45,19.50
2015,08,17,11,46,19.40
2015,08,17,11,47,19.40
2015,08,17,11,48,19.40
2015,08,17,11,49,19.50
2015,08,17,11,50,19.50
2015,08,17,11,51,19.60
2015,08,17,11,52,19.60
2015,08,17,11,53,19.60
2015,08,17,11,54,19.60
2015,08,17,11,55,19.70
2015,08,17,11,56,19.70
2015,08,17,11,57,19.70
2015,08,17,11,58,19.80
2015,08,17,11,59,19.80
2015,08,17,12,00,19.80
2015,08,17,12,01,19.80
2015,08,17,12,02,19.80
2015,08,17,12,03,19.80
2015,08,17,12,04,19.70
2015,08,17,12,05,19.60
2015,08,17,12,06,19.60
2015,08,17,12,07,19.50
2015,08,17,12,08,19.50
2015,08,17,12,09,19.40
2015,08,17,12,10,19.40
2015,08,17,12,11,19.50
2015,08,17,12,12,19.50
2015,08,17,12,13,19.60
2015,08,17,12,14,19.60
2015,08,17,12,15,19.60
2015,08,17,12,16,19.70
2015,08,17,12,17,19.80
2015,08,17,12,18,19.80
2015,08,17,12,19,19.90
2015,08,17,12,20,20.00
2015,08,17,12,21,20.00
2015,08,17,12,22,20.10
2015,08,17,12,23,20.20
2015,08,17,12,24,20.20
2015,08,17,12,25,20.30
2015,08,17,12,26,20.30
2015,08,17,12,27,20.40
2015,08,17,12,28,20.40
2015,08,17,12,29,20.50
2015,08,17,12,30,20.60
2015,08,17,12,31,20.60
2015,08,17,12,32,20.70
2015,08,17,12,33,20.70
2015,08,17,12,34,20.70
2015,08,17,12,35,20.70
2015,08,17,12,36,20.80
2015,08,17,12,37,20.80
2015,08,17,12,38,20.80
2015,08,17,12,39,20.80
2015,08,17,12,40,20.80
2015,08,17,12,41,20.80
2015,08,17,12,42,20.80
2015,08,17,12,43,20.80
2015,08,17,12,44,20.80
2015,08,17,12,45,20.80
2015,08,17,12,46,20.90
2015,08,17,12,47,20.90
2015,08,17,12,48,21.00
2015,08,17,12,49,21.00
2015,08,17,12,50,21.10
2015,08,17,12,51,21.20
2015,08,17,12,52,21.20
2015,08,17,12,53,21.20
2015,08,17,12,54,21.20
2015,08,17,12,55,21.30
2015,08,17,12,56,21.30
2015,08,17,12,57,21.30
2015,08,17,12,58,21.30
2015,08,17,12,59,21.20
2015,08,17,13,00,21.20
2015,08,17,13,01,21.30
2015,08,17,13,02,21.30
2015,08,17,13,03,21.40
2015,08,17,13,04,21.40
2015,08,17,13,05,21.40
2015,08,17,13,06,21.40
2015,08,17,13,07,21.40
2015,08,17,13,08,21.30
2015,08,17,13,09,21.30
2015,08,17,13,10,21.40
2015,08,17,13,11,21.40
2015,08,17,13,12,21.40
2015,08,17,13,13,21.50
2015,08,17,13,14,21.60
2015,08,17,13,15,21.70
2015,08,17,13,16,21.70
2015,08,17,13,17,21.80
2015,08,17,13,18,21.80
2015,08,17,13,19,21.80
2015,08,17,13,20,21.80
2015,08,17,13,21,21.80
2015,08,17,13,22,21.80
2015,08,17,13,23,21.80
2015,08,17,13,24,21.80
2015,08,17,13,25,21.90
2015,08,17,13,26,22.00
2015,08,17,13,27,22.10
2015,08,17,13,28,22.10
2015,08,17,13,29,22.20
2015,08,17,13,30,22.20
2015,08,17,13,31,22.30
2015,08,17,13,32,22.30
2015,08,17,13,33,22.30
2015,08,17,13,34,22.30
2015,08,17,13,35,22.30
2015,08,17,13,36,22.20
2015,08,17,13,37,22.20
2015,08,17,13,38,22.10
2015,08,17,13,39,22.10
2015,08,17,13,40,22.10
2015,08,17,13,41,22.20
2015,08,17,13,42,22.20
2015,08,17,13,43,22.20
2015,08,17,13,44,22.20
2015,08,17,13,45,22.20
2015,08,17,13,46,22.20
2015,08,17,13,47,22.20
2015,08,17,13,48,22.20
2015,08,17,13,49,22.20
2015,08,17,13,50,22.20
2015,08,17,13,51,22.20
2015,08,17,13,52,22.30
2015,08,17,13,53,22.30
2015,08,17,13,54,22.30
2015,08,17,13,55,22.30
2015,08,17,13,56,22.30
2015,08,17,13,57,22.30
2015,08,17,13,58,22.40
2015,08,17,13,59,22.40
2015,08,17,14,00,22.50
2015,08,17,14,01,22.50
2015,08,17,14,02,22.60
2015,08,17,14,03,22.60
2015,08,17,14,04,22.60
2015,08,17,14,05,22.60
2015,08,17,14,06,22.60
2015,08,17,14,07,22.60
2015,08,17,14,08,22.60
2015,08,17,14,09,22.60
2015,08,17,14,10,22.60
2015,08,17,14,11,22.60
2015,08,17,14,12,22.70
2015,08,17,14,13,22.70
2015,08,17,14,14,22.70
2015,08,17,14,15,22.70
2015,08,17,14,16,22.70
2015,08,17,14,17,22.70
2015,08,17,14,18,22.70
2015,08,17,14,19,22.80
2015,08,17,14,20,22.80
2015,08,17,14,21,22.80
2015,08,17,14,22,22.80
2015,08,17,14,23,22.90
2015,08,17,14,24,22.90
2015,08,17,14,25,22.90
2015,08,17,14,26,22.90
2015,08,17,14,27,22.90
2015,08,17,14,28,22.90
2015,08,17,14,29,23.00
2015,08,17,14,30,22.90
2015,08,17,14,31,22.90
2015,08,17,14,32,22.80
2015,08,17,14,33,22.80
2015,08,17,14,34,22.70
2015,08,17,14,35,22.80
2015,08,17,14,36,22.80
2015,08,17,14,37,22.80
2015,08,17,14,38,22.80
2015,08,17,14,39,22.90
2015,08,17,14,40,22.90
2015,08,17,14,41,23.00
2015,08,17,14,42,23.00
2015,08,17,14,43,23.10
2015,08,17,14,44,23.10
2015,08,17,14,45,23.20
2015,08,17,14,46,23.20
2015,08,17,14,47,23.30
2015,08,17,14,48,23.40
2015,08,17,14,49,23.40
2015,08,17,14,50,23.50
2015,08,17,14,51,23.60
2015,08,17,14,52,23.80
2015,08,17,14,53,23.90
2015,08,17,14,54,24.10
2015,08,17,14,55,24.20
2015,08,17,14,56,24.30
2015,08,17,14,57,24.40
2015,08,17,14,58,24.40
2015,08,17,14,59,24.40
2015,08,17,15,00,24.30
2015,08,17,15,01,24.30
2015,08,17,15,02,24.30
2015,08,17,15,03,24.30
2015,08,17,15,04,24.30
2015,08,17,15,05,24.20
2015,08,17,15,06,24.20
2015,08,17,15,07,24.20
2015,08,17,15,08,24.20
2015,08,17,15,09,24.10
2015,08,17,15,10,24.10
2015,08,17,15,11,24.00
2015,08,17,15,12,23.90
2015,08,17,15,13,23.90
2015,08,17,15,14,23.80
2015,08,17,15,15,23.80
2015,08,17,15,16,23.70
2015,08,17,15,17,23.70
2015,08,17,15,18,23.80
2015,08,17,15,19,23.80
2015,08,17,15,20,23.90
2015,08,17,15,21,23.90
2015,08,17,15,22,23.90
2015,08,17,15,23,23.90
2015,08,17,15,24,23.90
2015,08,17,15,25,23.90
2015,08,17,15,26,23.90
2015,08,17,15,27,23.90
2015,08,17,15,28,23.90
2015,08,17,15,29,24.00
2015,08,17,15,30,24.00
2015,08,17,15,31,24.10
2015,08,17,15,32,24.20
2015,08,17,15,33,24.20
2015,08,17,15,34,24.20
2015,08,17,15,35,24.20
2015,08,17,15,36,24.20
2015,08,17,15,37,24.20
2015,08,17,15,38,24.20
2015,08,17,15,39,24.20
2015,08,17,15,40,24.20
2015,08,17,15,41,24.20
2015,08,17,15,42,24.30
2015,08,17,15,43,24.30
2015,08,17,15,44,24.40
2015,08,17,15,45,24.30
2015,08,17,15,46,24.30
2015,08,17,15,47,24.20
2015,08,17,15,48,24.10
2015,08,17,15,49,24.20
2015,08,17,15,50,24.20
2015,08,17,15,51,24.30
2015,08,17,15,52,24.30
2015,08,17,15,53,24.40
2015,08,17,15,54,24.30
2015,08,17,15,55,24.30
2015,08,17,15,56,24.30
2015,08,17,15,57,24.30
2015,08,17,15,58,24.30
2015,08,17,15,59,24.30
2015,08,17,16,00,24.40
2015,08,17,16,01,24.40
2015,08,17,16,02,24.40
2015,08,17,16,03,24.40
2015,08,17,16,04,24.50
2015,08,17,16,05,24.50
2015,08,17,16,06,24.60
2015,08,17,16,07,24.70
2015,08,17,16,08,24.80
2015,08,17,16,09,24.90
2015,08,17,16,10,24.90
2015,08,17,16,11,24.90
2015,08,17,16,12,24.90
2015,08,17,16,13,24.80
2015,08,17,16,14,24.80
2015,08,17,16,15,24.80
2015,08,17,16,16,24.70
2015,08,17,16,17,24.70
2015,08,17,16,18,24.80
2015,08,17,16,19,24.90
2015,08,17,16,20,24.90
2015,08,17,16,21,24.90
2015,08,17,16,22,24.90
2015,08,17,16,23,25.00
2015,08,17,16,24,25.00
2015,08,17,16,25,25.10
2015,08,17,16,26,25.10
2015,08,17,16,27,25.10
2015,08,17,16,28,25.10
2015,08,17,16,29,25.00
2015,08,17,16,30,25.00
2015,08,17,16,31,24.90
2015,08,17,16,32,24.80
2015,08,17,16,33,24.90
2015,08,17,16,34,24.90
2015,08,17,16,35,25.00
2015,08,17,16,36,25.00
2015,08,17,16,37,25.10
2015,08,17,16,38,25.10
2015,08,17,16,39,25.10
2015,08,17,16,40,25.20
2015,08,17,16,41,25.20
2015,08,17,16,42,25.20
2015,08,17,16,43,25.10
2015,08,17,16,44,25.10
2015,08,17,16,45,25.10
2015,08,17,16,46,25.10
2015,08,17,16,47,25.20
2015,08,17,16,48,25.30
2015,08,17,16,49,25.40
2015,08,17,16,50,25.40
2015,08,17,16,51,25.40
2015,08,17,16,52,25.40
2015,08,17,16,53,25.40
2015,08,17,16,54,25.40
2015,08,17,16,55,25.40
2015,08,17,16,56,25.30
2015,08,17,16,57,25.30
2015,08,17,16,58,25.40
2015,08,17,16,59,25.40
2015,08,17,17,00,25.30
2015,08,17,17,01,25.30
2015,08,17,17,02,25.30
2015,08,17,17,03,25.30
2015,08,17,17,04,25.20
2015,08,17,17,05,25.20
2015,08,17,17,06,25.10
2015,08,17,17,07,25.10
2015,08,17,17,08,24.90
2015,08,17,17,09,24.80
2015,08,17,17,10,24.70
2015,08,17,17,11,24.40
2015,08,17,17,12,24.30
2015,08,17,17,13,24.10
2015,08,17,17,14,24.00
2015,08,17,17,15,23.90
2015,08,17,17,16,23.80
2015,08,17,17,17,23.80
2015,08,17,17,18,23.70
2015,08,17,17,19,23.70